Waarnemingen

Advertentie
Mijn weer
Startbyn, Zweden (2181): temperatuur & dauwpunt: 19.10.2020 09:00:00 - 25.10.2020 09:00:00 (CET)Startbyn, Zweden (2181): windsnelheid & windstoten: 19.10.2020 09:00:00 - 25.10.2020 09:00:00 (CET)Startbyn, Zweden (2181): windrichting: 19.10.2020 09:00:00 - 25.10.2020 09:00:00 (CET)Startbyn, Zweden (2181): luchtdruk: 19.10.2020 09:00:00 - 25.10.2020 09:00:00 (CET)Startbyn, Zweden (2181): zicht: 19.10.2020 09:00:00 - 25.10.2020 09:00:00 (CET)Startbyn, Zweden (2181): neerslag: 19.10.2020 09:00:00 - 25.10.2020 09:00:00 (CET)
Datum & Tijd tt [°C] td [°C] ff [km/u] ff [kn] fx [km/u] fx [kn] dd ppp [hPa] vv [km] rr [mm]
25.10.2020 09:00:00 - - - - - - - - - -
25.10.2020 08:00:00 -4,6 -5,3 0 0 4 2 N 1007,0 50 0,0
25.10.2020 07:00:00 -5,2 -5,9 0 0 5 3 N 1006,5 50 0,0
25.10.2020 06:00:00 -7,8 -8,9 0 0 3 2 N 1006,0 50 0,0
25.10.2020 05:00:00 -7,6 -8,4 0 0 8 4 N 1005,3 50 0,0
25.10.2020 04:00:00 -7,6 -8,2 2 1 6 3 OZO 1005,5 50 0,0
25.10.2020 03:00:00 -8,7 -9,6 2 1 5 3 ZO 1004,7 50 0,0
25.10.2020 02:00:00 -7,8 -8,6 0 0 5 3 N 1004,2 50 0,0
25.10.2020 01:00:00 - - - - - - - - - -
25.10.2020 00:00:00 -7,5 -8,2 0 0 5 3 N 1003,6 50 0,0
24.10.2020 23:00:00 -6,8 -7,5 0 0 9 5 N 1002,8 50 0,0
24.10.2020 22:00:00 -6,0 -6,9 0 0 6 4 N 1002,4 50 0,0
24.10.2020 21:00:00 -5,0 -6,0 2 1 9 5 ZW 1002,3 50 0,0
24.10.2020 20:00:00 -3,0 -6,0 3 2 10 5 N 1001,7 50 0,0
24.10.2020 19:00:00 -1,0 -4,3 4 2 12 7 WNW 1000,8 50 0,0
24.10.2020 18:00:00 -1,0 -4,5 5 3 15 8 NW 1000,4 50 0,0
24.10.2020 17:00:00 0,4 -3,7 9 5 22 12 WNW 1000,0 50 0,0
24.10.2020 16:00:00 1,0 -3,3 9 5 22 12 WNW 999,7 50 0,0
24.10.2020 15:00:00 1,7 -2,4 8 4 19 10 WNW 999,3 50 0,0
24.10.2020 14:00:00 1,8 -2,3 7 4 17 9 WNW 998,6 50 0,0
24.10.2020 13:00:00 2,2 -2,1 8 5 26 14 WNW 998,5 50 0,0
24.10.2020 12:00:00 1,9 -2,2 13 7 25 14 NW 997,9 50 0,0
24.10.2020 11:00:00 1,4 -2,5 11 6 32 17 NW 997,4 50 0,0
24.10.2020 10:00:00 1,1 -2,5 12 6 30 16 WNW 996,9 50 0,0
24.10.2020 09:00:00 0,7 -2,7 12 7 29 15 NW 996,3 50 0,0
24.10.2020 08:00:00 0,0 -2,7 11 6 31 17 NW 995,5 50 0,0
24.10.2020 07:00:00 0,3 -2,6 13 7 30 16 WNW 995,0 48 0,0
24.10.2020 06:00:00 0,7 -1,9 13 7 29 15 WNW 994,6 50 0,0
24.10.2020 05:00:00 0,9 -1,3 15 8 32 17 NW 993,9 50 0,0
24.10.2020 04:00:00 0,2 -1,8 13 7 31 17 WNW 993,5 43 0,5
24.10.2020 03:00:00 -1,6 -2,7 11 6 29 15 WNW 993,2 13 0,1
24.10.2020 02:00:00 -5,6 -6,8 4 2 16 9 ZO 993,3 50 0,0
24.10.2020 01:00:00 -2,5 -4,5 10 6 20 11 W 992,9 50 0,0
24.10.2020 00:00:00 -6,4 -7,9 4 2 15 8 ZO 992,9 50 0,0
23.10.2020 23:00:00 -3,3 -5,6 6 3 17 9 W 993,0 50 0,0
23.10.2020 22:00:00 -3,5 -5,8 6 4 23 12 W 993,2 50 0,0
23.10.2020 21:00:00 -4,0 -6,1 9 5 21 11 WZW 993,3 50 0,0
23.10.2020 20:00:00 -7,9 -9,1 4 2 8 5 ZZO 993,4 50 0,0
23.10.2020 19:00:00 -6,8 -7,7 2 1 11 6 WZW 993,5 50 0,0
23.10.2020 18:00:00 -8,1 -8,9 0 0 7 4 N 993,6 50 0,0
23.10.2020 17:00:00 -6,8 -7,7 3 2 12 6 OZO 993,5 50 0,0
23.10.2020 16:00:00 -4,7 -6,0 4 2 14 8 Z 993,8 50 0,0
23.10.2020 15:00:00 -2,4 -5,1 2 1 7 4 ZW 993,5 50 0,0
23.10.2020 14:00:00 -2,5 -5,0 5 3 10 5 ZW 993,5 50 0,0
23.10.2020 13:00:00 -2,7 -5,3 5 3 7 4 ZW 993,5 50 0,0
23.10.2020 12:00:00 -3,1 -5,4 4 2 8 4 ZW 993,7 50 0,0
23.10.2020 11:00:00 -4,2 -6,3 3 2 5 3 ZW 993,8 50 0,0
23.10.2020 10:00:00 -6,1 -7,7 3 2 6 4 Z 993,8 50 0,0
23.10.2020 09:00:00 -6,1 -7,2 5 3 15 8 NW 993,6 50 0,0
23.10.2020 08:00:00 -7,7 -8,9 0 0 11 6 N 993,7 50 0,0
23.10.2020 07:00:00 -6,8 -7,7 0 0 7 4 N 993,7 50 0,0
23.10.2020 06:00:00 -5,1 -6,5 5 3 13 7 WNW 993,8 50 0,0
23.10.2020 05:00:00 -3,6 -5,0 4 2 13 7 NW 993,9 50 0,0
23.10.2020 04:00:00 -3,1 -4,3 7 4 17 9 NW 994,1 50 0,0
23.10.2020 03:00:00 -2,8 -3,9 4 2 15 8 NNW 994,3 50 0,0
23.10.2020 02:00:00 -2,6 -3,7 5 3 19 11 NW 994,5 39 0,0
23.10.2020 01:00:00 -2,4 -3,4 9 5 20 11 NW 994,8 31 0,0
23.10.2020 00:00:00 -2,3 -3,1 9 5 18 10 NW 995,1 34 0,0
22.10.2020 23:00:00 -2,2 -2,9 4 2 22 12 NW 995,4 43 0,0
22.10.2020 22:00:00 -2,1 -2,8 7 4 17 9 NW 995,7 50 0,0
22.10.2020 21:00:00 -1,9 -2,6 8 5 16 8 NW 996,0 50 0,0
22.10.2020 20:00:00 -1,8 -2,5 7 4 12 7 NW 996,4 50 0,0
22.10.2020 19:00:00 -1,7 -2,4 6 3 16 8 NW 996,7 50 0,0
22.10.2020 18:00:00 -1,6 -2,3 8 5 17 9 NW 996,8 39 0,0
22.10.2020 17:00:00 -1,4 -2,1 8 4 13 7 NW 997,3 15 0,0
22.10.2020 16:00:00 -1,3 -1,9 6 4 14 8 NNW 997,6 24 0,0
22.10.2020 15:00:00 -1,2 -1,9 6 3 16 8 NNW 998,1 6 0,0
22.10.2020 14:00:00 -0,9 -1,7 7 4 15 8 NNW 998,6 5 0,2
22.10.2020 13:00:00 -0,7 -1,5 5 3 14 7 NNW 999,0 50 0,0
22.10.2020 12:00:00 -1,0 -1,8 6 3 13 7 NNW 999,1 45 0,0
22.10.2020 11:00:00 -1,3 -2,3 6 3 11 6 NNW 999,7 33 0,0
22.10.2020 10:00:00 -1,6 -2,3 5 3 11 6 NNW 1000,1 26 0,0
22.10.2020 09:00:00 -2,0 -2,7 6 3 13 7 NNW 1000,6 18 -
22.10.2020 08:00:00 -2,1 -2,7 5 3 13 7 NNW 1000,9 7 0,1
22.10.2020 07:00:00 -2,2 -2,6 6 3 11 6 NNW 1001,0 2,8 0,1
22.10.2020 06:00:00 -2,3 -2,9 5 3 11 6 NNW 1001,3 7 0,2
22.10.2020 05:00:00 -2,3 -2,9 5 3 10 5 NNW 1001,8 1,4 0,1
22.10.2020 04:00:00 -2,4 -3,0 5 3 9 5 NNW 1002,4 2,5 0,2
22.10.2020 03:00:00 -2,3 -3,0 5 3 12 7 N 1003,3 4,2 0,2
22.10.2020 02:00:00 -2,4 -3,1 5 3 10 5 N 1004,0 3,6 0,1
22.10.2020 01:00:00 -2,4 -3,1 5 3 13 7 N 1004,9 2,4 0,3
22.10.2020 00:00:00 -2,5 -3,2 5 3 10 6 N 1005,7 3,2 0,3
21.10.2020 23:00:00 -2,6 -3,3 4 2 12 7 N 1006,5 4,1 0,4
21.10.2020 22:00:00 -2,7 -3,4 3 1 17 9 N 1007,2 1,4 0,6
21.10.2020 21:00:00 -2,9 -3,6 3 2 17 9 NO 1008,0 1,3 0,7
21.10.2020 20:00:00 -3,0 -3,7 6 3 21 11 NNO 1008,7 1,7 0,4
21.10.2020 19:00:00 -3,2 -3,9 5 3 13 7 NO 1009,5 1,7 0,3
21.10.2020 18:00:00 -3,4 -4,1 7 4 16 9 NO 1010,4 1,7 0,1
21.10.2020 17:00:00 -3,6 -4,3 7 4 14 8 ONO 1011,1 19 0,0
21.10.2020 16:00:00 -4,1 -4,8 4 2 10 5 NNO 1012,0 50 0,0
21.10.2020 15:00:00 -4,6 -5,4 2 1 9 5 O 1012,6 50 0,0
21.10.2020 14:00:00 -4,6 -5,4 4 2 10 5 ONO 1013,1 50 0,0
21.10.2020 13:00:00 -4,8 -5,6 4 2 14 8 O 1013,6 50 0,0
21.10.2020 12:00:00 -4,7 -5,4 5 3 12 6 O 1014,3 50 -
21.10.2020 11:00:00 -4,4 -5,1 5 3 11 6 NO 1014,6 42 0,0
21.10.2020 10:00:00 -4,6 -5,3 4 2 8 5 NO 1015,1 7 0,0
21.10.2020 09:00:00 -5,3 -6,0 3 2 11 6 NO 1015,3 7 0,0
21.10.2020 08:00:00 -5,6 -6,3 3 2 7 4 NO 1015,4 6 0,0
21.10.2020 07:00:00 -6,1 -6,9 0 0 6 3 N 1015,7 11 0,0
21.10.2020 06:00:00 -6,2 -6,9 0 0 4 2 N 1015,8 2,0 0,0
21.10.2020 05:00:00 -6,7 -7,5 0 0 5 3 N 1016,1 19 0,0
21.10.2020 04:00:00 -6,2 -6,9 2 1 6 3 O 1016,5 1,9 0,0
21.10.2020 03:00:00 -5,9 -6,6 0 0 5 3 N 1016,9 2,8 0,0
21.10.2020 02:00:00 -5,8 -6,5 2 1 6 4 NNO 1017,2 2,5 0,0
21.10.2020 01:00:00 -6,0 -6,7 0 0 9 5 N 1017,5 2,1 0,0
21.10.2020 00:00:00 -5,9 -6,6 5 3 9 5 ONO 1017,8 2,6 0,0
20.10.2020 23:00:00 -5,6 -6,1 5 3 10 5 NO 1017,8 1,9 0,0
20.10.2020 22:00:00 -5,2 -5,8 5 3 9 5 NO 1017,9 2,5 0,0
20.10.2020 21:00:00 -4,6 -5,1 4 2 10 6 NO 1018,0 7 0,0
20.10.2020 20:00:00 -4,2 -4,9 3 1 10 5 NNO 1017,9 14 0,0
20.10.2020 19:00:00 -4,0 -4,7 4 2 11 6 N 1018,1 34 0,0
20.10.2020 18:00:00 -3,6 -4,6 4 2 9 5 N 1018,2 6 0,0
20.10.2020 17:00:00 -3,3 -4,1 6 3 16 9 N 1018,1 6 -
20.10.2020 16:00:00 -2,6 -3,9 5 3 12 7 N 1018,4 50 0,0
20.10.2020 15:00:00 -2,9 -4,6 3 2 13 7 NNW 1018,5 50 0,0
20.10.2020 14:00:00 -2,8 -4,5 6 3 11 6 NNW 1018,5 50 0,0
20.10.2020 13:00:00 -2,7 -4,7 5 3 12 6 NNW 1018,5 50 0,0
20.10.2020 12:00:00 -3,2 -5,4 6 4 16 9 N 1018,4 50 0,0
20.10.2020 11:00:00 -3,6 -5,6 8 4 16 9 N 1018,4 50 0,0
20.10.2020 10:00:00 -4,8 -6,2 5 3 13 7 N 1018,5 50 0,0
20.10.2020 09:00:00 -6,9 -7,8 3 1 6 3 NNW 1018,4 50 0,0
20.10.2020 08:00:00 -7,7 -8,9 3 1 13 7 NNW 1018,2 50 0,0
20.10.2020 07:00:00 -6,8 -7,7 5 3 15 8 NNW 1017,9 50 0,0
20.10.2020 06:00:00 -7,7 -8,5 5 3 9 5 NW 1017,6 50 0,0
20.10.2020 05:00:00 -7,5 -8,2 3 2 7 4 NW 1017,5 50 0,0
20.10.2020 04:00:00 -7,5 -8,2 3 2 8 4 NW 1017,3 50 0,0
20.10.2020 03:00:00 -7,1 -7,8 0 0 11 6 N 1017,4 50 0,0
20.10.2020 02:00:00 -7,2 -7,9 4 2 8 5 NW 1017,2 50 0,0
20.10.2020 01:00:00 -5,4 -5,9 3 2 10 5 NNW 1017,0 50 0,0
20.10.2020 00:00:00 -6,3 -7,0 3 2 10 5 NNW 1016,8 31 0,0
19.10.2020 23:00:00 -4,7 -5,9 5 3 15 8 NW 1016,5 50 0,0
19.10.2020 22:00:00 -3,1 -4,8 7 4 15 8 NNW 1016,2 50 0,0
19.10.2020 21:00:00 -2,7 -4,4 6 4 15 8 NNW 1016,0 50 0,0
19.10.2020 20:00:00 -2,3 -4,2 8 5 24 13 NNW 1015,7 50 0,0
19.10.2020 19:00:00 -2,2 -3,8 8 4 16 9 NNW 1015,4 50 0,0
19.10.2020 18:00:00 -2,1 -3,5 7 4 15 8 NNW 1015,1 50 0,0
19.10.2020 17:00:00 -1,6 -3,0 9 5 21 12 NNW 1014,9 50 0,0
19.10.2020 16:00:00 -1,0 -2,6 9 5 20 11 NNW 1014,6 50 0,0
19.10.2020 15:00:00 -0,9 -2,9 6 3 22 12 NNW 1014,2 50 0,0
19.10.2020 14:00:00 -0,5 -2,9 8 5 21 11 NNW 1013,6 50 0,0
19.10.2020 13:00:00 -0,3 -2,5 8 4 24 13 N 1013,1 50 0,0
19.10.2020 12:00:00 0,0 -2,1 10 5 22 12 N 1012,2 50 0,0
19.10.2020 11:00:00 0,0 -2,1 8 5 22 12 N 1011,4 50 0,0
19.10.2020 10:00:00 -0,1 -1,9 8 5 20 11 NNW 1010,5 50 0,0
19.10.2020 09:00:00 -0,2 -1,8 9 5 23 12 N 1009,6 50 0,0

tt = temperatuur
td = dauwpunt
ff = windsnelheid
fx = windstoten
dd = windrichting
ppp = luchtdruk
vv = zicht
rr = neerslag

Weerstations in de omgeving